Regional Weather Roundup
Issued by NWS

Home | Current Version | Previous Version | Text Only | Print | Product List | Glossary Off
Versions: 1 2 3 4 5 6 7 8 9 10 11 12 13 14 15 16 17 18 19 20 21 22 23 24 25 26 27 28 29 30 31 32 33 34 35 36 37 38 39 40 41 42 43 44 45 46 47 48 49 50

000
ASUS43 KFSD 222202
RWRSD

WEATHER ROUNDUP FOR SOUTH DAKOTA
NATIONAL WEATHER SERVICE SIOUX FALLS SD
400 PM CST MON JAN 22 2018

NOTE: "FAIR" INDICATES FEW OR NO CLOUDS BELOW 12,000 FEET WITH NO
SIGNIFICANT WEATHER AND/OR OBSTRUCTIONS TO VISIBILITY.


SDZ001>005-009-010-012>017-222300-
NORTHWEST AND NORTH CENTRAL SOUTH DAKOTA

CITY           SKY/WX    TMP DP  RH WIND       PRES   REMARKS
BUFFALO          N/A     34  20  56 NW10      29.91R WCI  26
FAITH            N/A     37  23  56 NW12      29.96R
MOBRIDGE       CLOUDY    24  22  91 N7        29.98R FOG     WCI  16
$$

SDZ012>016-024>037-041>051-057-063-072>074-222300-
SOUTHWEST AND SOUTH CENTRAL SOUTH DAKOTA

CITY           SKY/WX    TMP DP  RH WIND       PRES   REMARKS
RAPID CTY ARPT SUNNY     40  17  39 N24       29.95R
PIERRE         CLOUDY    24  23  96 N13       29.97R WCI  12
CUSTER         SUNNY     36   9  32 NW10      29.91R
ELLSWORTH AFB  SUNNY     40  16  38 N18G31    29.95R
PHILIP         SUNNY     37  27  67 NW14      29.97R
PINE RIDGE     SUNNY     26  17  68 W8        29.98S WCI  18
SPEARFISH        N/A     36  16  44 NW18G24   29.98R
WINNER         MIX PCPN  27  23  85 N14       29.95R FOG     WCI  16
$$

SDZ004>011-016>023-039-040-222300-
NORTHEAST SOUTH DAKOTA

CITY           SKY/WX    TMP DP  RH WIND       PRES   REMARKS
ABERDEEN       CLOUDY    24  22  91 N22G28    29.98R WCI   9
WATERTOWN      CLOUDY    24  24 100 N22G29    29.85R WCI   9
BROOKINGS      CLOUDY    26  23  88 N26G32    29.81R WCI  10
SISSETON         N/A     27  24  89 N24       29.93R WCI  12
$$

SDZ017-020-022-023-036>040-048>070-222300-
SOUTHEAST SOUTH DAKOTA

CITY           SKY/WX    TMP DP  RH WIND       PRES   REMARKS
SIOUX FALLS    FLURRIES  28  25  88 N30G39    29.77R WCI  12
HURON          CLOUDY    25  22  88 N23G33    29.92R WCI  10
CHAMBERLAIN    CLOUDY    27  26  94 NW18      29.93R WCI  14
MITCHELL       CLOUDY    25  23  92 N23       29.90R WCI  10
YANKTON        MIX PCPN  26  24  92 MISG      29.79R FOG
$$

ABBREVIATIONS USED IN REMARKS
   TC - TEMPERATURE IN CELSIUS
  WCI - WIND CHILL INDEX
   HX - HEAT INDEX
  VSB - VISIBILITY





USA.gov is the U.S. government's official web portal to all federal, state and local government web resources and services.